EZY459L LFSB-LFKB

Flight info

Callsign EZY459L
Flight time 1h 2m
Altitude 31000
Route ELBEG Y715 AMRUP N491 TRA DCT RIPUS DCT GERSA DCT SOSON DCT ODINA DCT OTMUV DCT UNITA DCT OLETI M858 LIGUR
Aircraft A320/M-SDE3FGHIRWY/LB1

Departure

Time 2026-05-04 15:23
Airport EuroAirport Basel–Mulhouse–Freiburg (LFSB)

Arrival

Time 2026-05-04 16:26
Airport Bastia-Poretta International airport (LFKB)
Time Latitude Longitude Altitude Speed Heading
2026-05-04 14:54 47.59791 7.53175 890 ft 0 kts 65°
2026-05-04 15:14 47.59785 7.53158 890 ft 4 kts 62°
2026-05-04 15:14 47.59772 7.53123 890 ft 4 kts 55°
2026-05-04 15:15 47.59756 7.53091 890 ft 4 kts 50°
2026-05-04 15:15 47.59737 7.53062 890 ft 4 kts 44°
2026-05-04 15:15 47.59717 7.53035 890 ft 4 kts 39°
2026-05-04 15:16 47.59673 7.52991 890 ft 4 kts 21°
2026-05-04 15:16 47.59649 7.52983 890 ft 4 kts 338°
2026-05-04 15:16 47.59640 7.52983 890 ft 0 kts 245°
2026-05-04 15:19 47.59618 7.52911 890 ft 9 kts 245°
2026-05-04 15:19 47.59588 7.52831 890 ft 9 kts 224°
2026-05-04 15:19 47.59460 7.52889 890 ft 15 kts 154°
2026-05-04 15:20 47.59372 7.52950 890 ft 13 kts 155°
2026-05-04 15:20 47.59290 7.53007 890 ft 14 kts 154°
2026-05-04 15:20 47.59201 7.53076 890 ft 13 kts 142°
2026-05-04 15:20 47.59180 7.53188 890 ft 12 kts 99°
2026-05-04 15:21 47.59147 7.53282 890 ft 11 kts 99°
2026-05-04 15:21 47.59165 7.53427 890 ft 18 kts 77°
2026-05-04 15:21 47.59231 7.53834 890 ft 19 kts 76°
2026-05-04 15:22 47.59236 7.53975 890 ft 12 kts 117°
2026-05-04 15:22 47.59195 7.54068 890 ft 8 kts 140°
2026-05-04 15:22 47.59158 7.54013 890 ft 0 kts 255°
2026-05-04 15:23 47.59156 7.54001 890 ft 10 kts 255°
2026-05-04 15:23 47.59076 7.53482 890 ft 93 kts 257°
2026-05-04 15:23 47.58878 7.52200 983 ft 153 kts 258°
2026-05-04 15:23 47.58650 7.50648 1823 ft 157 kts 259°
2026-05-04 15:24 47.59013 7.47355 2692 ft 193 kts 316°
2026-05-04 15:24 47.61840 7.46744 3323 ft 243 kts 24°
2026-05-04 15:25 47.63219 7.48332 3816 ft 263 kts 56°
2026-05-04 15:25 47.63988 7.50826 4667 ft 270 kts 72°
2026-05-04 15:25 47.64606 7.53470 5597 ft 274 kts 72°
2026-05-04 15:26 47.65877 7.58889 7400 ft 282 kts 72°
2026-05-04 15:26 47.66534 7.61639 8304 ft 284 kts 73°
2026-05-04 15:26 47.66477 7.67343 10008 ft 282 kts 117°
2026-05-04 15:27 47.65328 7.69754 10441 ft 297 kts 137°
2026-05-04 15:27 47.62104 7.74122 11457 ft 323 kts 139°
2026-05-04 15:28 47.58772 7.78694 12906 ft 334 kts 139°
2026-05-04 15:28 47.57615 7.80290 13389 ft 338 kts 139°
2026-05-04 15:28 47.53553 7.85894 14932 ft 348 kts 140°
2026-05-04 15:29 47.51775 7.88339 15627 ft 350 kts 140°
2026-05-04 15:30 47.45102 7.97485 18218 ft 365 kts 140°
2026-05-04 15:30 47.39415 8.05241 19958 ft 376 kts 141°
2026-05-04 15:31 47.35523 8.10545 21069 ft 382 kts 141°
2026-05-04 15:31 47.33566 8.13214 21606 ft 384 kts 141°
2026-05-04 15:32 47.27595 8.21322 23226 ft 394 kts 141°
2026-05-04 15:32 47.23548 8.26817 24191 ft 399 kts 141°
2026-05-04 15:33 47.19435 8.32369 25083 ft 403 kts 141°
2026-05-04 15:34 47.13188 8.40787 26400 ft 409 kts 141°
2026-05-04 15:34 47.11088 8.43618 26841 ft 411 kts 141°
2026-05-04 15:34 47.06884 8.49262 27686 ft 414 kts 142°
2026-05-04 15:35 47.01999 8.53407 28491 ft 405 kts 171°
2026-05-04 15:35 46.99205 8.53913 28864 ft 406 kts 176°
2026-05-04 15:35 46.96381 8.54306 29281 ft 408 kts 176°
2026-05-04 15:36 46.90703 8.55116 30032 ft 412 kts 176°
2026-05-04 15:36 46.87842 8.55525 30348 ft 414 kts 176°
2026-05-04 15:36 46.84967 8.55944 30607 ft 416 kts 176°
2026-05-04 15:37 46.82076 8.56364 30858 ft 417 kts 176°
2026-05-04 15:37 46.79237 8.56767 31007 ft 402 kts 176°
2026-05-04 15:37 46.73763 8.57556 31029 ft 393 kts 176°
2026-05-04 15:38 46.68329 8.58326 31050 ft 392 kts 176°
2026-05-04 15:38 46.62902 8.59100 31066 ft 391 kts 177°
2026-05-04 15:39 46.57485 8.59864 31073 ft 391 kts 176°
2026-05-04 15:40 46.49356 8.61024 31065 ft 391 kts 177°
2026-05-04 15:40 46.43941 8.61791 31070 ft 391 kts 177°
2026-05-04 15:41 46.38525 8.62549 31078 ft 391 kts 177°
2026-05-04 15:41 46.33112 8.63317 31076 ft 391 kts 176°
2026-05-04 15:42 46.27702 8.64075 31074 ft 391 kts 177°
2026-05-04 15:42 46.22295 8.64825 31062 ft 390 kts 177°
2026-05-04 15:43 46.16891 8.65589 31068 ft 390 kts 177°
2026-05-04 15:43 46.11488 8.66349 31068 ft 390 kts 177°
2026-05-04 15:44 46.06106 8.67384 31070 ft 391 kts 174°
2026-05-04 15:44 46.00729 8.68534 31068 ft 390 kts 174°
2026-05-04 15:45 45.95352 8.69667 31067 ft 391 kts 174°
2026-05-04 15:45 45.89973 8.70799 31046 ft 391 kts 174°
2026-05-04 15:46 45.84585 8.71934 31057 ft 392 kts 174°
2026-05-04 15:46 45.79173 8.73049 31069 ft 393 kts 175°
2026-05-04 15:47 45.73744 8.74183 31071 ft 395 kts 175°
2026-05-04 15:47 45.68304 8.75329 31062 ft 396 kts 175°
2026-05-04 15:48 45.62850 8.76460 31055 ft 396 kts 175°
2026-05-04 15:48 45.54658 8.78155 31052 ft 397 kts 175°
2026-05-04 15:49 45.49191 8.79282 31060 ft 397 kts 175°
2026-05-04 15:49 45.43717 8.80411 31069 ft 397 kts 175°
2026-05-04 15:50 45.38242 8.81533 31051 ft 398 kts 176°
2026-05-04 15:50 45.32787 8.82661 31055 ft 399 kts 176°
2026-05-04 15:51 45.27285 8.83785 31059 ft 400 kts 176°
2026-05-04 15:51 45.21783 8.84913 31077 ft 400 kts 177°
2026-05-04 15:52 45.16274 8.86039 31079 ft 400 kts 177°
2026-05-04 15:52 45.10761 8.87170 31072 ft 401 kts 176°
2026-05-04 15:53 45.05237 8.88303 31079 ft 402 kts 176°
2026-05-04 15:53 44.99694 8.89417 31058 ft 402 kts 177°
2026-05-04 15:54 44.94147 8.90540 31063 ft 403 kts 177°
2026-05-04 15:54 44.88589 8.91666 31068 ft 403 kts 177°
2026-05-04 15:55 44.83031 8.92791 31062 ft 404 kts 177°
2026-05-04 15:55 44.77468 8.93913 31069 ft 404 kts 177°
2026-05-04 15:56 44.71900 8.95025 31076 ft 404 kts 178°
2026-05-04 15:56 44.66335 8.96147 31073 ft 404 kts 177°
2026-05-04 15:57 44.60763 8.97256 31077 ft 405 kts 178°
2026-05-04 15:57 44.55192 8.98382 31073 ft 405 kts 178°
2026-05-04 15:58 44.49614 8.99495 31083 ft 405 kts 178°
2026-05-04 15:58 44.44026 9.00602 31087 ft 405 kts 178°
2026-05-04 15:59 44.38502 9.01709 30767 ft 393 kts 178°
2026-05-04 15:59 44.35813 9.02249 30519 ft 387 kts 178°
2026-05-04 15:59 44.33154 9.02765 30277 ft 385 kts 178°
2026-05-04 16:00 44.30546 9.03282 30008 ft 383 kts 178°
2026-05-04 16:00 44.27916 9.03811 29719 ft 381 kts 178°
2026-05-04 16:00 44.25264 9.04334 29422 ft 379 kts 178°
2026-05-04 16:00 44.22694 9.04831 29122 ft 375 kts 179°
2026-05-04 16:01 44.20119 9.05292 28677 ft 369 kts 182°
2026-05-04 16:01 44.17590 9.05266 28245 ft 359 kts 190°
2026-05-04 16:01 44.15115 9.04959 27813 ft 355 kts 191°
2026-05-04 16:01 44.12662 9.04657 27385 ft 353 kts 190°
2026-05-04 16:02 44.10227 9.04359 26960 ft 350 kts 190°
2026-05-04 16:02 44.07809 9.04067 26521 ft 348 kts 189°
2026-05-04 16:02 44.03009 9.03499 25646 ft 345 kts 189°
2026-05-04 16:03 44.00621 9.03230 25199 ft 344 kts 188°
2026-05-04 16:03 43.98239 9.02952 24749 ft 343 kts 188°
2026-05-04 16:03 43.95861 9.02670 24295 ft 343 kts 188°
2026-05-04 16:03 43.93481 9.02389 23844 ft 343 kts 187°
2026-05-04 16:04 43.91108 9.02099 23337 ft 343 kts 187°
2026-05-04 16:04 43.86383 9.01514 22436 ft 338 kts 187°
2026-05-04 16:04 43.84042 9.01229 22012 ft 336 kts 187°
2026-05-04 16:05 43.81719 9.00955 21602 ft 335 kts 186°
2026-05-04 16:05 43.79408 9.01283 21334 ft 338 kts 166°
2026-05-04 16:05 43.75164 9.04078 20821 ft 340 kts 156°
2026-05-04 16:06 43.73063 9.05557 20577 ft 338 kts 157°
2026-05-04 16:06 43.67477 9.09425 19722 ft 334 kts 157°
2026-05-04 16:07 43.64731 9.11323 19203 ft 333 kts 158°
2026-05-04 16:07 43.58534 9.15604 17972 ft 331 kts 158°
2026-05-04 16:08 43.56480 9.17022 17584 ft 329 kts 157°
2026-05-04 16:08 43.50377 9.21223 16439 ft 325 kts 157°
2026-05-04 16:09 43.46345 9.23994 15700 ft 323 kts 157°
2026-05-04 16:09 43.42336 9.26745 14958 ft 321 kts 157°
2026-05-04 16:10 43.38340 9.29476 14223 ft 321 kts 158°
2026-05-04 16:11 43.32355 9.33561 13035 ft 318 kts 157°
2026-05-04 16:11 43.30379 9.34910 12656 ft 317 kts 156°
2026-05-04 16:12 43.24503 9.38922 11506 ft 312 kts 155°
2026-05-04 16:12 43.18694 9.42881 10252 ft 310 kts 155°
2026-05-04 16:13 43.14872 9.45480 9670 ft 298 kts 156°
2026-05-04 16:13 43.11256 9.47920 8589 ft 284 kts 155°
2026-05-04 16:14 43.07757 9.50243 7649 ft 276 kts 155°
2026-05-04 16:14 43.04937 9.52117 7207 ft 265 kts 156°
2026-05-04 16:15 43.00077 9.55338 6218 ft 251 kts 156°
2026-05-04 16:16 42.97012 9.57159 5413 ft 231 kts 161°
2026-05-04 16:16 42.92598 9.58535 4978 ft 204 kts 173°
2026-05-04 16:17 42.89911 9.58845 4978 ft 188 kts 181°
2026-05-04 16:18 42.86073 9.58060 4986 ft 188 kts 189°
2026-05-04 16:18 42.84788 9.57695 4966 ft 188 kts 192°
2026-05-04 16:19 42.80961 9.56386 4179 ft 190 kts 192°
2026-05-04 16:19 42.78395 9.55442 3663 ft 193 kts 193°
2026-05-04 16:20 42.74683 9.54049 2916 ft 173 kts 193°
2026-05-04 16:20 42.72422 9.53105 2437 ft 168 kts 193°
2026-05-04 16:21 42.69190 9.51890 1750 ft 149 kts 189°
2026-05-04 16:22 42.67298 9.51212 1371 ft 132 kts 189°
2026-05-04 16:22 42.64745 9.50258 819 ft 127 kts 192°
2026-05-04 16:23 42.62171 9.48973 600 ft 133 kts 196°
2026-05-04 16:24 42.58796 9.47392 440 ft 120 kts 176°
2026-05-04 16:25 42.57110 9.47647 213 ft 126 kts 164°
2026-05-04 16:26 42.54655 9.48633 31 ft 40 kts 162°
2026-05-04 16:26 42.54148 9.48731 35 ft 19 kts 232°
2026-05-04 16:27 42.54234 9.48485 35 ft 16 kts 341°
2026-05-04 16:28 42.54455 9.48417 35 ft 8 kts
2026-05-04 16:28 42.54585 9.48382 35 ft 0 kts 342°
2026-05-04 16:29 42.54764 9.48306 34 ft 10 kts 343°
2026-05-04 16:30 42.54800 9.48272 35 ft 3 kts 265°
2026-05-04 16:31 42.54781 9.48190 35 ft 2 kts 252°
2026-05-04 16:31 42.54781 9.48188 35 ft 0 kts 252°